Theta_e
283 283 284 284 284 284 284 284 284 284 284 284 284 284 283 283 283 284 284 284 284 285 285 285 285 285 285 285 285 285 286 286 286 286 286 286 286 286 286 286 286 286 286 286 286 286 287 287 287 288 288 288 288 287 286 286 285 284 284 284 284 285 284 284 284 284 284 284 285
282 282 283 283 283 283 283 283 283 283 283 284 283 283 283 283 283 283 283 283 283 284 284 284 284 284 284 284 285 285 285 285 285 286 286 286 286 286 286 286 286 286 285 285 285 286 287 287 287 288 288 288 288 288 287 286 285 284 284 284 284 285 285 284 284 284 284 284 284
281 282 282 282 282 282 282 282 282 282 281 282 282 282 282 282 282 282 282 282 282 282 283 283 283 283 283 283 284 284 284 285 285 285 285 286 286 286 286 286 286 286 286 286 285 286 286 285 286 287 288 288 288 287 288 287 286 286 286 285 285 286 286 286 286 285 284 285 284
281 281 281 281 280 281 281 281 281 280 280 281 281 281 281 281 281 281 281 280 280 281 281 282 282 282 282 282 282 283 283 283 284 284 285 285 285 286 286 286 286 286 286 286 285 285 285 284 286 287 287 286 286 287 287 288 287 286 286 287 287 287 286 287 286 286 285 286 285
281 281 281 280 280 279 280 280 279 279 280 280 280 281 281 281 280 280 280 280 280 280 280 280 280 281 281 281 281 282 282 282 283 283 284 284 285 285 286 286 286 286 286 286 286 285 285 284 286 286 286 286 287 287 287 286 286 286 286 287 287 287 287 287 286 286 286 286 285
281 280 280 280 279 279 279 279 279 279 279 279 279 279 280 281 280 280 279 279 279 279 279 279 280 280 280 280 280 281 281 281 282 282 282 283 284 285 285 286 286 287 287 286 286 286 285 285 286 287 286 286 286 285 285 284 284 285 286 287 287 287 287 287 287 287 286 286 285
280 280 280 280 280 279 279 279 279 278 278 279 278 278 278 279 279 278 278 278 278 278 279 279 279 279 279 279 279 279 280 280 280 280 281 281 282 283 283 284 285 286 286 286 286 286 286 285 287 287 287 287 287 286 285 284 284 285 286 287 288 288 287 287 287 287 287 286 285
281 281 280 280 280 280 279 278 279 279 279 279 279 278 277 278 277 278 278 278 278 278 278 279 278 278 277 278 278 278 278 279 279 279 280 280 280 281 281 282 283 284 285 286 286 286 286 286 287 287 287 287 287 287 286 284 284 284 285 286 287 287 287 287 286 286 286 286 285
281 281 281 281 280 280 280 279 279 279 279 279 278 278 278 278 278 278 278 279 279 278 278 278 277 277 277 277 277 277 278 278 278 278 278 279 279 279 280 281 281 282 283 284 285 285 286 286 287 286 287 287 287 287 286 284 284 283 284 285 286 287 286 286 285 285 285 285 285
280 280 280 280 280 280 280 279 279 279 279 279 278 278 278 279 279 279 279 279 279 278 278 278 277 277 277 277 277 277 277 277 277 277 277 278 278 278 279 279 280 280 281 282 283 283 284 285 285 286 286 286 286 286 285 284 284 283 284 286 286 286 286 286 285 285 285 285 285
278 278 278 278 278 278 279 279 279 279 279 279 278 278 278 279 278 278 278 279 278 278 277 277 277 277 277 277 277 277 277 277 277 277 277 277 277 277 278 278 278 279 279 280 281 282 283 283 284 284 284 285 285 285 285 284 284 284 284 285 285 285 285 285 285 285 285 285 285
277 277 277 276 276 277 278 278 278 278 278 278 277 277 278 278 277 277 277 277 277 277 277 277 276 276 276 277 277 277 277 276 276 276 276 276 276 277 277 277 278 278 278 279 280 281 281 281 282 282 282 283 284 285 285 285 285 285 285 285 285 285 285 285 285 286 286 285 285
277 277 277 276 276 276 277 277 277 277 277 277 277 277 277 277 276 276 276 276 277 277 277 277 276 275 275 276 276 276 276 276 275 276 276 276 276 276 276 277 277 277 278 278 279 280 280 280 280 280 281 281 282 283 283 283 284 284 285 285 285 285 285 286 286 286 286 285 285
277 277 276 276 276 276 276 277 277 277 277 276 276 276 276 276 276 276 275 275 275 276 276 276 276 276 275 275 275 275 275 275 275 275 275 275 275 276 276 276 276 277 277 278 278 279 279 279 279 279 280 280 281 281 282 282 283 283 284 284 284 285 285 286 286 286 286 285 286
276 276 275 275 275 275 275 275 276 276 276 276 275 275 275 275 275 275 275 274 274 274 275 275 276 276 275 275 274 274 274 274 274 274 274 275 275 275 275 276 276 276 277 277 278 278 278 278 279 279 279 279 280 280 281 281 281 282 282 283 283 284 284 285 285 286 286 286 286
275 275 274 274 274 274 274 275 275 275 275 275 275 274 274 275 274 274 274 274 274 274 274 274 275 275 275 275 274 274 273 274 274 274 274 274 274 275 275 275 275 276 276 276 277 277 278 278 278 279 279 279 279 280 280 280 281 281 281 282 282 283 283 284 285 285 285 285 285
273 273 273 273 273 273 273 273 274 274 274 274 274 274 274 274 274 274 274 274 274 274 274 273 274 274 274 275 274 273 273 274 274 274 274 274 274 274 274 274 275 275 276 276 276 277 277 278 278 278 278 279 279 279 279 280 280 280 281 281 282 282 283 283 284 284 284 285 285
272 271 271 272 272 273 273 273 273 273 273 273 273 273 273 273 273 273 273 273 273 273 273 273 273 272 273 273 273 273 273 273 273 273 273 273 273 274 274 274 275 275 275 276 276 276 277 277 278 278 278 278 279 279 279 279 280 280 280 281 281 282 282 283 283 284 284 284 284
272 272 272 272 273 273 273 273 273 273 273 273 273 273 272 272 272 272 272 272 272 272 272 272 272 272 272 272 272 273 273 273 273 273 273 273 273 273 274 274 274 275 275 275 276 276 276 277 277 277 278 278 278 279 279 279 279 280 280 280 281 281 282 282 283 283 284 284 284
273 273 273 273 273 273 273 273 273 273 273 272 272 272 272 271 271 271 271 272 272 271 271 271 271 272 272 272 272 272 272 273 273 272 272 273 273 273 273 274 274 274 275 275 275 276 276 276 276 277 277 277 278 278 278 278 279 279 279 280 280 281 281 282 282 282 283 283 283
274 274 274 274 274 273 273 273 273 272 272 272 272 272 272 271 271 271 271 272 271 271 270 270 271 271 271 271 271 272 272 273 273 272 272 272 273 273 273 274 274 274 274 275 275 275 275 276 276 276 277 277 277 277 278 278 278 279 279 280 280 280 281 281 282 282 282 283 283
274 274 274 274 274 273 273 273 272 272 272 272 272 272 272 272 272 272 271 271 271 270 270 271 271 271 271 271 271 272 272 273 272 272 272 272 273 273 273 274 273 274 274 274 274 275 275 275 276 276 276 277 277 277 278 278 278 278 279 279 280 280 280 281 281 281 282 282 283
274 274 274 274 274 274 273 273 272 272 272 273 273 272 272 272 272 272 272 271 271 271 271 271 271 271 271 271 271 271 271 272 272 272 272 272 272 273 273 273 273 273 273 274 274 274 274 275 275 276 276 276 277 277 277 278 278 278 279 279 279 280 280 280 281 281 281 282 282
273 273 274 275 274 273 273 272 272 272 273 273 273 273 272 272 272 272 272 271 271 271 271 271 272 271 271 271 270 270 270 271 271 271 272 272 272 272 273 273 273 273 273 274 275 275 276 276 276 276 276 277 277 277 277 278 278 278 278 278 279 279 280 280 280 281 281 281 282
272 272 273 273 273 272 272 272 272 272 272 272 272 272 271 271 271 271 271 271 271 271 270 270 270 270 271 271 271 271 270 270 271 271 272 272 273 273 273 273 274 274 274 275 277 278 279 278 278 277 277 277 277 277 277 277 277 278 278 278 278 279 279 279 280 280 281 281 281
272 272 272 271 271 271 271 271 271 271 271 271 271 271 270 270 270 270 270 270 270 270 270 270 271 271 272 272 272 272 271 271 272 272 272 273 273 273 273 274 274 274 274 275 277 279 280 280 280 279 278 277 277 276 276 277 277 277 277 278 278 278 278 279 279 280 280 281 281
271 270 270 270 270 269 269 270 270 269 269 269 269 270 270 269 270 269 269 269 270 270 270 270 270 272 273 273 272 272 272 272 272 272 272 272 272 272 273 273 273 273 274 276 278 279 280 280 280 280 279 277 276 276 276 276 276 277 277 277 277 278 278 278 278 279 280 280 281
270 269 269 269 268 268 268 269 268 268 268 268 268 268 268 268 268 268 268 269 269 269 270 271 271 272 272 272 272 272 271 272 272 272 272 272 272 272 272 272 273 273 274 277 278 279 279 279 280 280 279 277 277 276 276 276 276 277 277 277 277 277 277 278 278 279 279 280 280
268 268 267 267 267 267 267 267 267 267 267 267 267 267 267 267 267 267 267 268 268 268 269 270 271 271 271 271 270 270 270 271 271 271 271 271 271 271 271 271 272 273 274 277 277 278 278 279 279 279 280 279 278 277 277 277 277 277 277 277 277 277 277 277 278 278 278 279 279
266 266 265 265 265 265 265 265 265 265 266 266 266 266 266 266 266 266 266 267 267 268 269 269 269 269 269 269 269 269 269 270 270 270 270 270 270 270 270 271 271 271 273 276 276 277 277 278 278 279 279 279 278 277 277 276 276 276 276 276 276 276 276 277 277 277 278 278 278
264 264 264 263 263 263 264 264 264 264 264 265 265 265 265 265 265 266 266 266 267 268 268 268 268 267 267 268 268 268 268 269 269 269 269 269 269 269 269 269 269 270 272 275 276 276 277 277 278 278 278 279 277 276 276 276 276 276 276 276 276 276 276 276 276 276 277 277 277
262 262 262 262 262 262 262 262 263 263 263 263 264 264 264 264 265 265 266 266 266 266 266 266 266 266 266 267 267 267 267 267 267 268 268 268 268 268 268 269 269 270 272 274 275 276 276 277 277 277 278 278 276 275 274 274 274 274 275 275 275 275 275 275 276 276 276 276 277
261 261 261 261 261 261 261 261 262 262 263 263 263 263 263 264 264 264 265 265 265 265 265 265 265 265 265 266 266 266 266 266 267 267 267 267 267 267 267 268 268 270 272 274 275 275 275 276 276 276 276 276 275 273 273 273 273 273 273 274 274 274 274 275 275 275 276 276 276
260 260 260 260 260 260 261 261 261 262 262 262 262 262 262 263 263 263 264 264 265 265 265 265 265 265 265 265 265 265 265 266 266 266 266 266 267 267 267 267 267 269 272 273 273 274 274 274 274 275 275 274 273 272 271 271 271 271 272 272 272 273 273 274 274 274 275 275 276
259 259 259 259 259 260 260 260 261 261 261 261 261 261 262 262 262 262 263 264 264 264 264 264 264 264 264 265 265 265 265 265 265 265 265 266 266 266 266 266 266 268 270 271 272 272 272 273 273 274 274 273 271 270 270 270 270 270 270 270 270 271 271 272 272 273 273 274 274
258 258 258 259 259 259 259 259 260 260 260 260 260 260 261 261 262 262 263 263 263 263 263 263 263 264 264 264 264 264 264 264 264 264 264 264 264 264 264 264 264 266 268 270 270 271 271 272 272 273 273 271 270 269 269 269 269 269 269 269 269 270 270 271 271 272 272 273 273
258 257 258 258 258 258 258 259 259 259 259 259 259 260 260 260 261 261 262 262 262 262 262 262 263 263 263 263 263 263 263 263 263 263 262 262 262 262 262 262 262 264 266 268 269 270 270 271 271 272 271 270 268 268 268 268 268 268 268 268 268 269 269 270 270 271 271 271 272
257 257 257 257 257 258 258 258 258 258 258 258 259 259 260 260 261 261 261 262 262 261 262 262 262 262 262 262 262 262 262 262 262 261 261 261 261 261 261 261 261 262 264 267 268 269 270 270 271 271 271 269 268 268 268 268 267 267 268 268 268 268 269 269 270 270 270 271 271
256 256 256 256 256 257 257 257 257 257 257 258 259 259 260 260 260 261 262 262 261 261 261 261 261 261 261 261 261 261 261 261 261 261 260 260 260 261 261 261 261 262 263 266 268 269 269 270 271 271 271 269 268 267 267 267 267 267 267 267 268 268 268 269 269 270 270 270 271
256 256 256 256 256 256 256 256 256 257 257 258 258 259 259 260 260 261 262 261 261 261 261 260 260 260 260 261 260 260 260 260 260 260 260 260 260 260 260 260 260 261 263 265 267 268 269 270 270 271 271 269 268 267 267 267 267 267 267 267 267 268 268 269 269 269 270 270 270
256 256 255 255 255 255 256 256 257 257 258 258 258 259 259 260 260 260 261 261 260 260 260 260 260 260 260 260 260 260 259 259 260 260 260 260 260 260 260 260 260 261 262 264 266 268 269 269 270 271 270 269 268 268 267 267 267 266 266 267 267 267 267 268 268 269 269 269 270
Wind_Speed
10 9 8 7 6 6 6 5 5 5 5 6 5 5 5 5 5 5 5 5 5 5 5 5 5 6 7 9 9 9 10 10 10 10 9 9 9 9 9 9 9 9 9 9 9 8 7 7 6 5 4 3 3 3 3 2 2 2 3 3 3 3 3 4 5 6 6 6 5
9 9 8 7 6 6 5 5 5 5 5 5 5 5 5 5 5 5 5 5 5 4 4 4 5 6 8 9 9 9 9 10 10 10 10 10 10 9 9 9 9 9 9 9 9 8 7 7 6 5 4 4 4 4 4 3 2 2 3 4 4 3 3 4 5 5 6 5 5
8 8 8 7 7 6 6 5 5 5 5 5 4 4 4 4 4 4 4 4 4 4 4 4 5 7 8 9 9 9 9 9 10 10 10 9 10 10 10 10 10 10 9 9 8 8 7 7 6 5 4 5 5 5 5 4 3 3 4 4 4 3 3 4 4 4 4 4 5
8 7 7 7 7 7 6 5 5 5 5 4 4 4 4 4 4 3 3 3 4 4 4 4 5 6 7 8 9 9 9 9 9 10 10 10 10 10 10 10 10 10 9 9 9 8 8 7 5 4 4 5 6 5 5 5 4 4 4 4 4 4 4 4 4 4 4 4 5
7 6 6 6 6 5 5 4 4 4 4 3 3 4 4 3 3 3 3 3 4 4 4 4 4 5 6 7 8 8 9 9 9 9 9 10 10 10 10 10 10 10 9 9 9 9 8 8 5 4 4 5 5 5 5 6 5 5 5 4 4 4 4 4 4 4 4 4 4
5 5 5 5 5 5 4 4 4 3 3 3 4 4 4 4 4 3 3 3 3 3 4 4 4 5 6 6 7 7 8 8 8 8 9 9 9 10 10 10 10 9 9 9 9 9 8 7 5 5 4 4 4 5 5 6 5 5 5 5 5 4 4 5 4 4 5 5 5
5 5 5 5 5 5 5 4 4 3 3 4 5 5 5 4 4 4 4 3 3 4 4 4 5 6 6 6 7 7 7 8 8 8 8 8 9 9 10 10 10 9 9 9 9 8 8 7 5 5 5 5 5 5 6 6 6 6 6 7 6 5 5 6 5 5 6 7 7
5 5 5 5 6 6 6 5 5 5 5 5 6 6 6 6 6 6 5 5 5 5 5 5 6 6 7 7 7 8 8 9 9 9 9 9 9 10 10 9 9 9 9 9 8 8 8 6 5 5 5 5 5 5 6 7 7 7 7 8 7 6 5 5 5 5 6 8 8
6 6 6 6 6 6 6 6 6 6 7 7 7 7 7 7 8 8 8 7 6 6 5 6 7 8 8 9 9 9 9 9 10 10 10 10 10 10 10 9 9 9 9 8 8 8 8 6 5 4 4 4 5 6 7 7 8 7 7 7 7 7 6 6 6 6 7 8 9
6 6 6 7 7 7 7 7 7 7 7 7 7 8 8 9 9 8 7 6 6 7 7 7 8 9 10 10 10 10 10 9 10 11 11 11 11 11 11 10 10 10 9 9 8 8 7 6 6 6 5 5 6 7 8 7 8 8 7 6 7 8 8 8 7 8 8 8 9
5 5 5 5 6 6 7 7 7 7 7 7 8 8 9 9 8 8 7 7 7 8 8 8 9 9 10 10 10 10 10 9 10 11 12 12 12 12 11 11 11 11 10 10 9 8 7 6 7 8 8 7 7 7 8 8 8 8 8 7 7 8 9 9 8 8 8 8 10
4 4 4 5 5 6 7 7 7 7 7 8 8 8 8 8 7 7 7 8 8 8 8 7 7 8 8 8 8 9 9 9 10 10 11 12 12 12 12 12 12 12 11 11 9 8 7 8 9 10 10 10 8 7 8 8 8 9 9 9 8 9 9 10 9 8 7 8 9
4 4 5 5 6 6 7 7 6 7 7 8 8 8 7 7 7 7 8 8 9 8 8 7 6 6 6 7 7 8 8 9 9 10 10 11 11 12 12 12 12 12 12 11 10 9 9 9 10 11 12 12 10 9 9 9 9 10 10 10 10 10 10 10 10 9 9 9 9
4 4 5 5 6 6 6 7 6 6 6 7 7 7 6 7 7 7 7 7 8 7 7 7 6 6 6 6 7 7 8 8 9 10 10 11 11 11 12 12 12 12 12 11 10 10 10 11 11 12 12 13 12 11 11 10 10 10 10 11 11 11 11 11 10 10 9 10 10
3 4 4 5 5 5 5 6 5 5 6 6 6 6 6 6 6 6 6 7 7 7 6 7 7 7 6 6 6 7 8 8 9 10 10 11 11 12 12 12 12 12 12 12 11 11 11 11 12 12 12 13 14 13 13 12 11 11 11 11 11 12 12 11 11 10 10 11 11
3 3 3 4 4 4 4 4 4 4 5 5 6 6 5 5 5 5 6 7 7 6 6 7 7 7 7 7 7 7 7 8 8 9 10 11 12 12 12 12 12 12 12 13 13 12 12 12 12 12 12 13 14 14 14 13 13 12 12 12 12 12 12 12 11 11 11 11 11
2 2 3 3 3 4 4 4 4 4 4 5 6 5 5 5 5 5 6 6 6 6 7 8 7 7 7 7 7 6 7 8 8 9 9 10 11 12 12 12 12 12 12 12 13 13 13 13 13 12 13 13 13 14 14 14 14 13 13 13 13 13 13 12 12 12 12 12 12
2 2 2 2 3 3 4 4 4 4 5 5 6 5 5 5 5 5 5 5 5 6 8 8 7 7 7 8 7 6 6 8 8 9 9 9 10 11 11 11 11 11 11 11 12 13 14 14 14 14 13 13 13 13 14 14 14 14 14 14 14 14 13 13 13 12 12 12 13
1 1 2 3 3 4 4 5 5 5 5 5 5 5 5 5 5 5 5 5 5 6 7 8 8 7 7 8 8 7 6 7 9 9 9 9 10 10 10 11 11 11 11 11 12 13 13 14 14 14 14 14 14 14 14 14 14 14 14 14 14 14 14 14 13 13 12 13 13
1 2 3 3 4 4 4 5 5 5 5 5 6 6 6 6 5 6 6 6 6 6 6 7 8 8 8 8 8 8 7 6 8 9 10 9 10 10 10 10 11 11 11 11 12 12 13 13 14 14 14 14 14 14 14 14 14 14 14 14 14 14 15 14 14 14 13 13 13
3 3 3 4 4 4 5 5 5 5 6 6 6 7 7 6 6 6 7 7 7 7 7 7 8 9 9 9 9 9 9 7 8 9 9 9 10 10 10 10 10 10 10 11 11 12 13 13 13 13 13 13 14 14 14 14 14 15 15 14 14 14 15 14 14 14 14 14 14
3 4 4 4 5 5 5 5 6 6 6 7 7 7 7 7 7 7 7 7 7 7 7 7 8 9 9 9 10 10 10 9 8 9 9 9 9 9 9 9 10 10 11 11 11 11 12 12 12 12 12 12 13 13 13 13 14 15 15 15 15 15 15 15 15 15 15 15 14
3 4 4 5 5 6 6 6 7 7 7 7 8 8 8 8 8 8 8 7 7 7 7 7 8 9 9 9 10 10 10 10 10 10 9 9 9 10 10 9 9 10 11 10 10 10 10 11 11 11 11 11 12 13 13 14 14 15 15 17 17 17 16 16 15 15 15 15 14
4 4 5 5 6 7 7 7 7 8 8 8 8 8 8 9 9 9 9 9 9 9 9 8 8 9 9 9 9 9 10 10 11 11 11 10 10 10 10 10 10 10 10 9 10 11 12 11 11 12 12 12 12 13 13 14 15 15 16 17 18 18 17 17 16 16 15 16 15
4 5 6 6 7 7 7 7 8 8 8 8 8 8 8 8 8 9 9 10 10 9 9 10 9 9 9 9 9 8 8 9 10 12 12 13 13 12 12 11 11 11 10 10 15 19 21 19 17 15 13 13 13 13 14 15 15 16 16 17 18 18 19 19 18 18 17 16 16
5 5 6 7 7 7 7 7 7 7 7 7 7 7 7 7 8 8 9 10 10 10 10 10 9 9 9 9 9 9 9 9 10 12 13 14 15 15 14 13 12 11 11 13 19 23 25 26 25 22 18 14 14 14 14 15 15 16 16 17 17 18 18 19 19 19 18 16 16
5 6 6 6 7 7 7 6 6 6 7 7 7 8 8 8 8 8 9 9 10 10 9 9 9 9 9 9 10 11 11 11 12 13 13 14 15 16 15 14 12 11 12 17 22 26 28 28 29 27 23 17 15 14 14 15 15 16 16 16 16 17 17 18 19 19 18 17 16
6 6 7 7 7 6 6 6 6 7 7 7 8 8 8 8 8 9 9 10 10 10 10 9 9 9 9 10 11 13 13 14 13 13 14 14 15 15 15 15 13 13 16 22 26 28 29 29 29 29 27 22 17 14 14 14 15 14 15 15 15 16 17 17 17 17 17 18 17
6 6 7 7 6 6 6 6 7 7 7 7 8 8 8 9 9 9 10 10 11 11 11 10 10 10 10 11 13 14 15 15 14 13 14 15 15 16 16 16 15 17 20 26 28 29 29 29 29 29 29 27 19 15 13 13 13 14 14 14 15 16 16 17 16 16 17 18 17
6 6 6 6 6 6 6 6 6 7 7 7 8 8 9 9 10 10 10 11 12 12 11 11 11 12 12 13 14 14 15 15 14 14 14 15 16 16 17 17 16 17 20 26 28 29 29 29 29 29 29 28 23 17 13 13 14 14 15 15 16 17 18 18 19 19 19 18 18
6 6 6 6 6 6 6 6 6 7 7 8 8 9 10 10 11 11 11 11 12 12 13 12 13 14 14 14 14 14 15 15 14 14 14 15 16 17 18 18 18 18 21 25 28 29 29 29 29 29 29 29 24 18 15 14 15 15 16 16 18 19 19 19 19 20 21 21 20
5 5 5 5 6 6 6 6 7 7 8 8 9 10 10 11 11 11 11 11 12 13 14 14 14 15 15 15 15 15 15 15 15 14 14 14 16 17 18 18 18 18 21 25 27 28 29 29 30 30 30 31 26 21 17 17 17 17 18 19 20 21 20 19 18 20 21 22 21
5 5 5 5 6 6 6 7 7 7 8 9 9 10 10 11 11 11 11 11 11 12 13 13 14 14 15 15 15 16 15 15 14 14 15 15 16 17 18 18 16 17 21 26 28 29 30 30 31 31 31 32 26 21 18 18 17 16 17 18 20 20 21 21 20 20 21 21 21
4 5 5 5 6 6 7 7 7 8 9 9 10 10 10 10 11 12 11 11 11 11 11 12 12 13 13 13 14 15 15 14 13 14 14 15 16 17 18 17 14 17 22 28 29 30 31 31 31 32 32 31 24 20 18 19 18 18 18 20 20 21 21 21 21 21 21 21 20
4 5 5 6 6 6 7 7 8 8 9 10 10 10 10 9 10 11 11 12 12 12 11 11 11 12 12 12 12 13 13 14 14 14 14 15 16 18 19 19 17 20 25 29 30 31 31 31 31 32 31 28 21 17 17 19 19 19 20 21 21 22 22 21 21 21 21 21 21
3 4 5 6 7 7 7 8 8 9 9 9 10 10 10 9 9 9 10 11 11 12 12 12 12 12 12 12 12 12 12 13 14 15 15 15 17 18 19 20 19 21 25 28 29 30 30 30 31 31 29 24 17 15 15 16 16 17 19 21 21 21 22 21 20 20 20 19 20
3 4 5 6 7 7 7 7 8 8 9 9 9 9 9 10 9 9 8 9 10 11 12 12 12 12 12 13 13 13 13 13 15 15 16 16 16 17 19 20 19 20 23 26 28 29 30 30 30 29 27 20 16 15 14 14 14 15 17 19 19 20 20 18 18 18 18 18 19
2 3 4 5 6 7 7 7 7 8 8 9 8 8 8 8 8 8 8 8 9 11 12 13 13 13 13 13 14 14 14 13 14 15 15 16 15 16 17 19 19 19 21 24 27 29 29 29 29 28 25 19 16 15 14 13 14 14 15 16 17 18 18 16 15 16 17 18 20
2 3 3 5 6 6 7 7 7 7 8 8 8 8 8 8 8 8 8 8 8 10 12 13 13 13 13 13 14 15 15 14 14 14 14 15 15 15 17 18 18 19 20 23 27 28 29 28 28 28 26 20 16 14 13 12 14 15 15 15 15 16 16 15 14 14 15 18 22
2 3 3 4 5 6 7 7 7 7 7 8 8 9 9 8 8 9 9 8 8 9 11 13 14 14 13 13 14 15 16 15 14 13 14 14 15 16 17 17 18 18 20 23 26 27 28 28 28 27 25 19 15 13 12 12 13 14 15 14 14 14 15 14 14 14 15 17 19
2 3 4 4 5 6 6 7 7 7 7 7 8 8 8 8 8 9 9 9 9 10 10 12 13 14 14 13 13 14 16 16 15 14 14 14 15 15 16 16 17 17 18 20 24 26 27 27 27 27 25 19 15 12 11 11 13 14 15 15 14 14 14 14 14 14 14 16 16
Wind_Direction
41 39 38 37 40 42 45 44 41 38 36 34 30 26 25 28 29 27 23 21 18 12 5 2 360 355 352 351 352 352 352 352 352 352 353 354 354 353 351 350 350 350 349 348 347 346 345 343 340 334 326 318 313 306 296 286 289 291 292 288 282 279 277 274 270 266 263 259 256
43 42 40 39 40 41 44 42 40 37 35 33 30 26 25 26 26 24 21 20 15 8 1 359 358 355 352 351 353 353 353 352 351 351 352 353 352 352 352 351 349 349 349 348 347 347 346 345 343 338 332 325 322 315 307 297 294 297 296 291 285 282 281 278 272 267 264 261 260
46 44 43 41 40 40 41 41 39 36 34 31 26 25 25 26 24 21 16 12 9 5 4 2 358 355 352 350 351 353 353 353 351 351 351 351 351 352 351 350 348 348 347 347 346 345 344 344 342 338 334 330 327 321 314 307 305 301 296 290 286 285 284 281 277 273 270 269 265
50 49 47 46 44 43 42 41 39 37 35 32 25 23 25 26 23 16 9 3 7 7 5 360 357 354 351 348 348 349 351 352 352 351 350 349 349 349 349 348 347 346 345 344 343 342 342 343 341 337 333 327 323 319 314 312 311 307 299 291 289 287 285 281 279 277 275 274 268
51 51 52 52 49 48 45 43 42 38 35 34 29 26 24 23 19 12 7 8 9 3 354 352 356 352 348 346 346 347 349 351 351 351 350 348 347 346 346 346 345 344 342 342 342 342 342 343 341 336 331 327 324 317 311 311 312 310 305 301 297 292 287 284 280 277 274 273 271
51 51 52 54 52 50 47 43 42 40 38 38 35 29 23 19 17 13 9 6 1 352 348 352 356 352 346 345 347 348 349 350 350 349 348 345 344 343 343 342 341 341 340 340 340 340 341 343 340 335 331 328 322 316 312 314 315 314 311 308 303 299 294 290 285 281 277 275 274
52 50 48 49 49 49 46 42 39 36 34 34 33 28 21 16 14 11 6 1 2 359 356 358 358 354 349 348 349 349 349 348 348 347 346 343 341 340 340 338 337 338 338 338 338 338 339 340 338 334 331 330 325 320 317 318 318 316 313 308 304 303 300 295 292 289 286 281 277
41 39 38 39 40 40 39 36 31 27 24 23 22 18 14 12 10 8 6 6 7 2 357 358 356 353 351 351 351 351 349 348 346 346 345 342 339 338 336 335 335 335 335 335 335 334 334 334 332 329 328 327 323 320 318 318 317 314 309 305 303 302 300 296 295 292 289 285 281
23 21 20 22 25 26 26 26 25 22 18 14 12 10 8 8 8 7 6 3 357 355 354 357 354 353 353 354 354 352 350 348 346 344 343 341 339 338 336 334 334 332 332 333 332 330 328 327 326 323 322 321 319 315 314 314 313 309 305 302 300 300 298 295 294 291 289 287 285
15 11 11 13 13 14 16 17 18 17 14 9 5 4 4 5 5 4 1 353 349 351 355 356 354 354 354 354 352 351 349 347 344 342 340 340 339 338 336 334 333 331 330 331 330 328 326 324 323 320 318 315 312 309 308 308 307 305 301 299 299 299 298 296 293 291 289 287 285
11 7 7 8 4 6 10 12 11 9 7 4 0 360 0 0 359 355 352 349 349 349 350 351 353 353 351 349 347 346 345 344 342 340 338 337 337 336 335 333 331 330 329 329 328 328 327 325 322 319 317 314 311 308 306 305 304 301 299 295 295 295 295 293 291 289 286 284 283
6 2 2 3 3 6 9 10 6 4 1 359 356 355 354 352 349 347 347 348 346 343 341 344 349 348 346 343 340 340 339 339 338 336 335 333 333 332 332 332 331 330 329 327 328 328 327 324 321 319 316 314 312 310 308 306 304 301 298 295 294 292 291 290 289 287 284 282 282
5 3 2 1 5 7 9 6 2 359 356 352 349 347 345 341 340 342 344 343 338 334 332 335 338 339 338 335 334 333 333 333 332 331 330 328 328 329 329 329 329 329 328 326 327 327 325 322 320 317 315 314 312 310 308 306 303 300 297 296 293 291 288 287 286 285 283 282 280
8 7 5 3 6 7 6 2 357 353 348 343 339 337 335 332 332 335 336 334 327 324 324 325 327 328 328 328 327 327 327 326 327 326 325 324 325 325 326 326 326 326 325 324 324 323 322 319 318 316 314 313 311 309 307 305 302 298 295 294 291 289 286 285 284 283 282 281 279
9 7 5 6 6 5 1 355 348 342 338 333 327 326 326 324 324 326 326 323 318 317 318 321 320 319 320 322 322 321 321 322 322 322 321 321 322 323 323 322 322 322 321 320 320 319 317 315 314 313 312 310 309 308 307 305 301 298 294 291 289 287 285 283 282 281 279 278 277
8 3 4 7 4 358 351 344 336 330 325 319 316 317 317 316 317 319 319 317 314 314 315 314 313 313 315 316 317 317 317 316 317 318 318 318 319 320 320 319 318 318 317 316 315 315 313 312 311 310 309 307 306 306 305 304 301 298 295 291 288 286 284 283 282 280 277 275 274
7 360 358 4 357 348 338 328 323 319 314 309 309 309 309 309 310 312 312 310 310 310 308 305 305 306 308 309 311 311 311 311 311 311 312 312 313 313 313 312 311 311 311 311 311 311 311 310 310 309 307 305 303 302 302 301 299 298 295 292 289 286 284 282 280 278 276 275 272
5 350 346 353 347 339 329 322 317 314 310 307 306 305 304 304 305 305 304 302 302 301 300 299 298 298 299 300 301 302 303 304 303 303 303 303 304 304 305 304 304 304 304 305 306 306 307 307 308 307 306 304 302 300 299 298 297 295 294 292 290 287 284 282 279 277 275 273 271
357 344 343 346 342 336 329 324 320 317 313 309 308 306 304 302 300 300 301 300 297 295 294 295 296 295 294 293 294 294 295 296 296 296 296 296 297 298 298 298 298 298 298 299 301 302 303 304 305 305 304 303 301 300 298 297 295 293 292 290 289 287 284 282 279 276 272 270 269
359 355 350 349 345 339 334 328 325 321 318 315 313 310 308 304 302 302 303 302 299 297 294 293 295 296 295 294 294 294 293 293 294 294 293 294 294 294 294 294 294 294 295 296 298 299 300 302 302 302 301 300 299 298 297 296 294 292 291 289 287 285 283 281 279 276 272 269 268
1 357 353 351 348 343 337 331 327 324 321 318 316 313 312 311 311 309 307 305 305 304 301 298 298 298 299 299 299 297 296 295 294 293 292 293 292 291 291 292 293 293 294 295 297 298 298 299 299 299 298 297 296 295 295 295 294 293 291 289 287 285 283 280 278 275 273 270 267
355 353 351 350 347 343 338 332 329 327 324 321 320 319 320 321 319 317 315 313 314 313 311 307 305 304 302 301 300 299 299 299 296 292 291 291 290 290 290 293 294 294 294 295 296 297 297 297 297 297 296 296 295 295 294 294 294 293 292 290 288 286 283 280 277 275 272 270 267
347 347 348 348 347 344 339 335 332 330 328 328 327 327 327 327 325 324 324 324 324 322 319 316 313 310 306 302 299 298 299 299 298 296 293 291 291 292 293 295 295 294 294 294 295 296 297 299 299 299 298 298 297 297 296 296 295 294 293 292 290 287 285 281 278 275 273 270 268
340 342 345 346 347 344 341 338 336 335 333 332 331 331 331 330 330 330 331 331 329 327 324 321 318 313 308 303 299 297 296 297 299 300 299 298 296 296 297 297 296 294 293 293 295 298 301 303 303 303 303 302 301 300 299 297 296 294 293 292 291 289 286 283 279 276 273 271 270
338 342 346 349 347 345 343 341 338 336 333 332 332 333 334 334 335 334 334 332 330 328 325 321 317 313 309 305 301 298 296 296 299 302 304 304 302 302 301 300 298 297 296 295 297 300 302 303 304 305 305 305 303 301 299 297 295 293 291 290 289 289 287 286 282 279 275 273 271
342 348 351 351 350 348 345 341 338 336 335 335 337 339 339 338 337 335 333 331 329 327 324 320 317 314 312 309 308 307 305 302 303 304 305 305 305 304 303 301 300 299 298 298 300 302 303 304 304 305 305 304 303 301 299 296 294 291 289 288 287 287 286 286 284 282 279 276 272
353 355 355 355 356 352 347 341 341 341 342 342 342 341 340 339 337 335 332 329 327 324 322 319 316 314 313 312 312 311 311 309 308 307 305 303 303 303 303 302 301 299 299 300 302 303 305 306 306 306 306 304 301 299 296 294 293 291 289 287 286 285 284 284 284 283 282 279 275
2 2 1 1 359 354 349 348 349 348 346 344 342 339 337 336 334 332 329 326 325 324 322 319 317 316 315 314 313 311 310 309 308 306 305 303 302 302 302 302 301 301 301 303 305 306 307 308 307 307 306 305 301 297 294 293 292 291 289 287 286 285 284 283 283 284 283 282 280
11 10 7 5 359 354 352 353 351 347 343 340 337 335 334 333 331 329 327 325 325 324 322 320 319 317 316 313 311 310 308 307 307 306 306 305 304 303 303 302 302 303 304 307 307 308 308 308 308 307 306 306 303 300 296 294 292 291 290 288 287 286 286 285 285 285 285 285 284
19 16 11 5 357 353 351 350 346 342 338 336 335 333 332 331 329 328 326 325 322 320 318 317 316 314 311 309 309 308 307 307 307 308 308 307 306 305 304 305 305 306 307 309 309 309 309 308 308 307 307 307 305 302 298 295 293 292 290 289 287 286 286 286 286 285 285 285 285
22 17 11 2 355 349 345 342 340 338 336 335 333 332 330 329 326 325 323 322 318 315 314 314 312 310 308 307 307 306 306 307 308 309 309 308 307 306 305 305 306 306 308 309 309 309 309 309 309 309 309 309 308 305 301 298 296 293 291 289 288 287 286 286 285 284 283 284 284
22 16 8 359 350 343 338 337 336 335 334 332 331 329 327 324 321 319 319 318 316 315 315 315 314 311 310 310 309 308 307 308 308 308 308 308 307 306 306 306 306 307 308 310 310 310 311 311 311 311 311 311 309 307 304 301 297 294 291 289 287 286 286 285 284 283 283 283 283
19 13 5 355 344 337 334 334 333 332 331 329 327 325 323 320 319 318 318 318 317 316 315 315 314 312 311 311 310 309 308 307 307 307 307 307 306 306 305 305 305 307 309 310 311 312 313 313 312 312 311 311 310 307 304 301 297 294 291 290 288 288 287 286 286 286 286 285 285
14 7 359 350 340 334 332 331 331 330 328 325 323 322 321 320 319 319 318 318 317 314 312 311 309 308 307 307 307 307 306 306 306 306 307 308 307 307 306 306 306 309 311 311 312 313 313 313 312 311 310 310 308 305 302 299 296 293 291 290 289 289 289 289 288 288 287 287 286
11 2 353 343 337 332 330 329 328 328 326 323 320 319 319 319 317 316 316 316 315 312 309 307 305 304 303 303 302 303 303 305 306 307 308 310 311 309 307 306 306 309 311 312 312 312 312 311 310 309 309 308 306 303 300 298 295 293 291 290 289 289 288 288 288 287 286 286 285
10 359 348 338 333 330 328 327 326 325 323 320 319 318 318 316 315 313 313 314 311 309 307 306 305 304 304 304 303 303 305 307 308 309 311 312 311 309 307 306 306 308 310 311 310 310 309 308 308 308 307 306 304 301 299 296 294 292 291 290 289 288 288 288 286 285 284 283 282
5 354 343 333 328 326 325 324 324 321 319 316 315 315 314 313 312 312 312 312 309 307 305 305 305 305 305 305 305 305 306 308 309 309 309 309 309 307 305 304 304 306 308 309 308 307 306 306 306 306 306 304 302 299 297 294 292 291 290 290 289 289 288 288 286 285 283 282 281
351 344 336 328 323 321 320 321 319 316 313 310 310 309 309 309 309 309 309 310 307 305 305 305 304 304 304 305 304 304 304 305 306 305 305 304 303 302 302 301 302 303 305 305 305 304 304 305 304 305 304 302 300 298 295 293 291 290 290 290 289 289 289 288 287 285 284 282 281
331 329 325 320 316 315 314 314 311 308 306 306 306 306 306 306 305 305 305 305 303 302 302 302 302 302 303 304 302 301 300 300 300 299 299 298 298 298 298 298 298 300 301 302 302 303 303 303 303 303 303 301 299 297 295 292 291 291 290 290 290 290 290 288 287 286 285 283 283
313 314 313 310 308 307 307 306 302 300 299 301 302 302 303 302 301 301 302 301 300 299 298 298 298 299 300 301 300 299 298 297 296 295 294 293 294 294 294 294 295 296 297 299 300 301 301 302 302 302 302 300 299 296 294 293 292 292 292 293 293 293 293 292 290 289 288 287 286
306 306 305 301 299 299 299 298 296 295 295 295 295 296 297 298 298 299 299 299 298 297 296 295 296 296 297 297 297 296 296 295 295 293 292 291 291 291 291 291 292 293 294 295 297 298 299 300 300 301 302 301 299 296 294 294 293 294 294 295 295 295 295 295 293 291 289 289 288